Location: Bailleul
(50.3375°N, 2.8513°E)
Time: 08:54:03
(UTC+00:00)

SPOT 3 Rocket - Pass Details

Date: 19 April 2021
Orbit: 778 x 795 km, 98.7° (Epoch: 05 May)

Event Time Altitude Azimuth Distance (km) Brightness Sun altitude
Exits shadow 19:32:48 - 137° (SE) 2,607 5.6 -7.1°
Reaches altitude 10° 19:33:29 10° 134° (SE) 2,351 5.4 -7.2°
Maximum altitude 19:38:20 42° 65° (ENE) 1,120 4.1 -7.9°
Drops below altitude 10° 19:43:12 10° 356° (N) 2,355 6.5 -8.6°
Sets 19:45:37 0° 350° (N) 3,286 7.4 -8.9°
